Temp
-6 -6 -5 -6 -6 -5 -5 -5 -5 -6 -6 -6 -6 -6 -6 -6 -6 -6 -7 -6 -6 -6 -5 -5 -5 -5 -5 -5 -5 -5 -5 -5 -5 -6 -6 -6 -6 -6 -6 -6 -5 -5 -6
-6 -6 -6 -6 -6 -6 -6 -6 -5 -6 -6 -6 -6 -6 -6 -6 -6 -6 -6 -6 -6 -6 -5 -5 -5 -5 -5 -5 -5 -5 -5 -5 -5 -5 -6 -6 -6 -6 -6 -6 -6 -6 -6
-6 -6 -6 -5 -6 -6 -6 -6 -6 -6 -6 -6 -6 -6 -6 -6 -6 -6 -6 -6 -6 -6 -6 -6 -5 -5 -5 -5 -5 -5 -5 -5 -5 -5 -5 -6 -6 -6 -6 -6 -6 -6 -6
-6 -6 -6 -6 -6 -6 -6 -6 -6 -6 -6 -6 -6 -6 -6 -6 -6 -6 -6 -6 -6 -6 -6 -6 -6 -5 -5 -5 -5 -5 -5 -5 -5 -5 -5 -5 -6 -6 -6 -6 -6 -6 -6
-6 -6 -6 -6 -6 -6 -6 -6 -6 -6 -6 -6 -6 -6 -6 -6 -6 -6 -6 -6 -6 -6 -6 -6 -6 -6 -6 -6 -6 -6 -5 -5 -5 -5 -5 -5 -5 -5 -5 -6 -6 -6 -6
-6 -6 -6 -6 -6 -6 -6 -6 -6 -6 -6 -6 -6 -6 -6 -6 -6 -6 -6 -6 -5 -5 -5 -5 -6 -6 -6 -6 -6 -6 -6 -6 -5 -5 -5 -5 -5 -5 -5 -5 -5 -6 -6
-6 -6 -6 -6 -6 -6 -6 -6 -5 -5 -6 -6 -5 -5 -5 -6 -5 -5 -5 -5 -6 -6 -7 -7 -6 -6 -6 -6 -6 -6 -6 -6 -5 -5 -5 -5 -5 -5 -5 -5 -5 -5 -6
-7 -6 -6 -6 -6 -5 -6 -6 -6 -6 -5 -6 -6 -6 -6 -6 -5 -6 -6 -7 -7 -7 -7 -7 -6 -6 -6 -6 -6 -6 -6 -7 -6 -6 -5 -5 -5 -5 -5 -5 -5 -4 -5
-7 -7 -6 -6 -6 -6 -7 -7 -6 -6 -6 -6 -6 -7 -6 -6 -6 -7 -7 -7 -7 -7 -7 -7 -6 -6 -6 -6 -6 -7 -7 -7 -7 -6 -6 -6 -6 -5 -5 -5 -4 -4 -5
-7 -8 -6 -6 -8 -7 -7 -6 -7 -6 -6 -6 -6 -6 -7 -7 -6 -6 -6 -6 -6 -6 -7 -6 -6 -7 -7 -7 -7 -6 -7 -8 -8 -7 -6 -6 -7 -6 -5 -5 -4 -4 -3
-7 -8 -8 -7 -8 -7 -6 -7 -6 -6 -6 -6 -6 -6 -6 -6 -7 -7 -7 -7 -7 -6 -6 -6 -6 -7 -7 -7 -7 -7 -7 -7 -8 -7 -7 -7 -6 -6 -6 -5 -4 -4 -4
-8 -8 -8 -8 -8 -8 -8 -7 -7 -6 -7 -7 -6 -6 -6 -6 -7 -7 -8 -7 -7 -7 -7 -7 -6 -7 -7 -7 -6 -7 -7 -7 -6 -8 -8 -7 -6 -6 -6 -5 -5 -4 -4
-9 -9 -9 -8 -9 -8 -8 -7 -6 -7 -6 -6 -7 -7 -6 -6 -7 -7 -7 -8 -7 -7 -7 -7 -6 -6 -7 -7 -7 -8 -8 -8 -7 -8 -7 -7 -7 -6 -5 -5 -5 -5 -5
-9 -9 -9 -8 -9 -8 -8 -7 -7 -6 -7 -6 -7 -6 -6 -7 -6 -7 -7 -7 -7 -7 -7 -7 -7 -6 -6 -6 -6 -6 -7 -7 -7 -7 -7 -7 -6 -6 -5 -5 -5 -6 -6
-10 -10 -9 -9 -9 -9 -8 -9 -8 -8 -8 -7 -7 -7 -7 -7 -7 -7 -7 -7 -7 -10 -8 -7 -7 -7 -6 -6 -6 -6 -7 -6 -6 -6 -7 -7 -6 -5 -5 -5 -5 -5 -5
-10 -10 -10 -10 -10 -10 -8 -9 -8 -8 -9 -8 -8 -8 -8 -8 -8 -8 -9 -11 -11 -9 -8 -7 -7 -7 -6 -6 -6 -6 -6 -6 -6 -6 -7 -6 -6 -6 -6 -6 -5 -6 -6
-11 -10 -10 -10 -10 -10 -10 -8 -9 -9 -9 -8 -8 -10 -10 -11 -9 -9 -11 -9 -8 -9 -8 -8 -7 -7 -7 -7 -7 -7 -7 -7 -7 -7 -7 -7 -7 -7 -7 -7 -7 -7 -7
-11 -11 -11 -11 -11 -10 -10 -10 -10 -9 -7 -8 -10 -10 -10 -11 -11 -10 -10 -10 -9 -9 -9 -9 -8 -7 -7 -7 -7 -7 -8 -8 -8 -8 -8 -8 -8 -8 -8 -8 -8 -8 -8
-11 -11 -12 -12 -12 -12 -12 -11 -11 -11 -11 -9 -9 -10 -11 -11 -11 -10 -11 -11 -11 -11 -11 -11 -10 -10 -10 -10 -10 -10 -9 -9 -9 -9 -9 -9 -9 -9 -9 -8 -8 -9 -9
-12 -12 -12 -12 -12 -13 -12 -12 -11 -11 -11 -11 -12 -11 -11 -10 -11 -12 -12 -12 -12 -12 -12 -12 -11 -11 -10 -10 -10 -10 -10 -10 -10 -10 -10 -10 -9 -9 -9 -9 -9 -9 -9
-13 -14 -13 -13 -13 -13 -12 -11 -11 -11 -10 -10 -10 -10 -11 -11 -11 -11 -11 -11 -11 -12 -12 -12 -11 -11 -11 -11 -11 -11 -10 -10 -10 -10 -10 -10 -10 -10 -10 -10 -10 -10 -10
-14 -14 -13 -13 -13 -12 -12 -12 -12 -12 -11 -11 -11 -10 -10 -10 -11 -11 -11 -11 -11 -12 -12 -11 -11 -11 -11 -11 -11 -11 -11 -11 -11 -11 -11 -11 -11 -11 -10 -10 -10 -10 -10
-15 -15 -14 -13 -13 -13 -13 -13 -13 -12 -12 -12 -12 -12 -13 -12 -12 -12 -12 -12 -12 -12 -12 -12 -12 -12 -12 -11 -12 -12 -12 -12 -12 -11 -11 -11 -11 -11 -11 -11 -11 -10 -10
-14 -14 -14 -14 -14 -13 -13 -13 -13 -13 -13 -13 -13 -13 -13 -13 -13 -13 -13 -13 -13 -13 -13 -13 -13 -13 -13 -12 -12 -12 -12 -13 -12 -12 -13 -13 -12 -12 -13 -13 -13 -13 -13
-15 -14 -14 -14 -14 -14 -14 -14 -14 -15 -14 -14 -14 -14 -15 -15 -15 -14 -14 -14 -14 -14 -14 -14 -14 -14 -14 -14 -14 -14 -14 -14 -14 -14 -14 -14 -14 -14 -14 -14 -14 -14 -14
-15 -15 -15 -15 -15 -15 -15 -16 -16 -15 -15 -15 -15 -15 -15 -15 -15 -15 -15 -15 -15 -15 -15 -15 -15 -15 -15 -15 -15 -15 -15 -16 -16 -16 -16 -15 -15 -16 -16 -16 -16 -16 -16
Height
5913 5916 5919 5922 5925 5927 5930 5932 5933 5934 5935 5937 5937 5939 5940 5941 5941 5942 5942 5943 5944 5944 5945 5946 5946 5947 5947 5947 5946 5945 5945 5944 5944 5943 5938 5935 5933 5929 5925 5923 5921 5919 5916
5908 5909 5911 5912 5916 5920 5923 5925 5926 5928 5929 5931 5932 5933 5934 5935 5936 5937 5937 5938 5938 5939 5939 5940 5941 5942 5942 5941 5941 5941 5939 5937 5937 5937 5934 5930 5926 5923 5919 5917 5915 5913 5910
5898 5902 5903 5904 5907 5912 5915 5916 5918 5920 5922 5924 5925 5927 5928 5928 5929 5930 5931 5932 5932 5933 5934 5935 5935 5936 5936 5935 5934 5934 5933 5932 5931 5930 5929 5925 5921 5917 5913 5911 5909 5907 5903
5890 5893 5896 5898 5901 5903 5905 5907 5909 5911 5913 5916 5917 5919 5920 5922 5923 5923 5924 5924 5926 5927 5927 5929 5930 5929 5930 5930 5929 5929 5927 5925 5924 5922 5920 5918 5916 5913 5908 5906 5905 5900 5897
5881 5884 5888 5891 5891 5892 5894 5898 5900 5901 5904 5907 5909 5911 5912 5914 5915 5916 5916 5917 5918 5920 5920 5921 5920 5921 5921 5921 5920 5920 5919 5917 5915 5914 5912 5909 5907 5904 5901 5900 5898 5896 5891
5869 5874 5878 5879 5881 5882 5885 5888 5889 5892 5894 5896 5899 5903 5904 5906 5906 5907 5908 5909 5912 5913 5913 5913 5913 5913 5913 5912 5911 5911 5911 5910 5907 5905 5904 5902 5900 5896 5893 5890 5888 5887 5886
5854 5859 5865 5870 5871 5873 5875 5877 5880 5883 5885 5887 5891 5893 5896 5898 5899 5900 5900 5901 5902 5904 5904 5904 5904 5902 5903 5903 5901 5902 5901 5900 5899 5898 5896 5894 5893 5889 5886 5884 5880 5878 5877
5830 5847 5850 5857 5861 5863 5864 5867 5871 5874 5876 5879 5881 5883 5886 5889 5891 5891 5890 5891 5892 5892 5893 5893 5893 5892 5891 5892 5891 5892 5891 5890 5890 5889 5887 5887 5884 5881 5879 5877 5874 5871 5868
5826 5838 5833 5842 5849 5852 5855 5857 5860 5860 5865 5868 5870 5873 5876 5880 5880 5880 5878 5878 5881 5884 5883 5883 5883 5881 5881 5881 5879 5880 5880 5880 5880 5881 5879 5878 5876 5874 5870 5869 5867 5863 5861
5815 5822 5825 5831 5836 5840 5846 5846 5847 5848 5850 5856 5857 5859 5862 5865 5866 5867 5868 5869 5871 5874 5873 5872 5872 5871 5870 5870 5869 5870 5869 5869 5868 5868 5869 5868 5868 5865 5864 5861 5859 5855 5852
5805 5809 5814 5818 5823 5827 5829 5833 5814 5830 5837 5842 5845 5846 5847 5849 5852 5854 5856 5858 5859 5860 5861 5860 5860 5860 5858 5859 5860 5857 5858 5858 5856 5859 5859 5859 5859 5858 5856 5853 5851 5847 5845
5793 5796 5803 5803 5807 5811 5812 5813 5804 5795 5824 5828 5832 5829 5832 5834 5837 5841 5843 5845 5846 5848 5850 5850 5849 5847 5846 5847 5847 5848 5848 5848 5846 5849 5849 5850 5851 5851 5850 5846 5844 5840 5837
5781 5786 5792 5794 5795 5799 5803 5802 5799 5808 5809 5813 5818 5818 5821 5811 5822 5826 5826 5829 5831 5834 5838 5841 5841 5839 5834 5835 5837 5840 5841 5842 5842 5840 5841 5842 5843 5843 5843 5841 5840 5837 5835
5770 5775 5779 5782 5783 5788 5791 5794 5792 5794 5794 5792 5801 5802 5805 5804 5809 5811 5810 5813 5816 5820 5822 5826 5830 5831 5827 5829 5829 5831 5833 5833 5835 5835 5835 5835 5835 5836 5835 5833 5833 5832 5831
5758 5762 5765 5767 5768 5774 5778 5780 5780 5782 5784 5785 5791 5785 5788 5789 5793 5796 5796 5799 5801 5806 5810 5813 5817 5821 5821 5823 5821 5822 5824 5825 5827 5826 5826 5827 5828 5828 5828 5827 5825 5825 5824
5742 5748 5754 5757 5759 5762 5767 5768 5770 5772 5774 5769 5775 5777 5778 5777 5780 5781 5785 5789 5797 5801 5805 5806 5809 5811 5812 5813 5813 5814 5815 5817 5817 5816 5816 5817 5818 5817 5816 5814 5814 5813 5812
5729 5740 5744 5746 5751 5753 5756 5758 5757 5759 5762 5763 5765 5769 5769 5776 5778 5781 5784 5790 5792 5795 5797 5799 5800 5801 5800 5802 5802 5803 5803 5803 5804 5803 5804 5803 5803 5804 5804 5803 5802 5801 5801
5722 5728 5733 5737 5741 5744 5744 5747 5749 5750 5752 5755 5756 5758 5758 5760 5764 5767 5770 5773 5778 5780 5783 5785 5788 5789 5788 5788 5790 5791 5790 5790 5790 5791 5790 5789 5789 5788 5788 5787 5787 5786 5787
5714 5720 5724 5728 5731 5734 5736 5739 5740 5741 5741 5741 5745 5748 5750 5752 5755 5757 5758 5762 5764 5768 5771 5771 5771 5772 5774 5776 5777 5777 5778 5778 5778 5778 5777 5777 5775 5775 5774 5773 5772 5771 5770
5708 5711 5718 5721 5724 5726 5727 5730 5732 5734 5735 5736 5736 5738 5740 5743 5743 5747 5749 5750 5752 5753 5755 5757 5759 5759 5759 5761 5761 5762 5762 5761 5761 5762 5763 5762 5762 5761 5760 5758 5757 5756 5755
5698 5703 5709 5713 5716 5719 5721 5723 5724 5726 5728 5730 5731 5731 5732 5733 5734 5737 5740 5740 5741 5742 5743 5742 5743 5745 5744 5746 5746 5747 5747 5747 5747 5746 5746 5746 5745 5744 5743 5742 5742 5741 5739
5700 5702 5706 5708 5711 5713 5715 5716 5717 5718 5719 5721 5723 5724 5725 5725 5725 5725 5727 5728 5729 5729 5729 5730 5730 5729 5730 5729 5731 5731 5731 5730 5730 5729 5729 5728 5728 5727 5726 5724 5723 5722 5721
5697 5699 5701 5704 5706 5707 5708 5710 5711 5712 5713 5713 5713 5712 5712 5713 5712 5712 5713 5713 5714 5714 5714 5713 5714 5714 5712 5713 5713 5712 5711 5712 5712 5711 5710 5710 5710 5710 5707 5705 5704 5702 5700
5694 5695 5696 5698 5699 5699 5699 5700 5701 5701 5702 5702 5702 5702 5701 5701 5700 5700 5699 5699 5699 5699 5699 5699 5699 5699 5698 5697 5696 5696 5695 5693 5693 5692 5691 5690 5689 5689 5688 5685 5683 5682 5679
5687 5688 5688 5689 5690 5690 5688 5686 5685 5684 5684 5685 5685 5686 5685 5686 5685 5684 5683 5683 5682 5682 5682 5681 5679 5679 5679 5679 5677 5677 5677 5674 5671 5670 5670 5669 5669 5668 5669 5666 5665 5663 5660
5675 5676 5676 5677 5678 5676 5675 5673 5672 5671 5670 5669 5667 5666 5666 5666 5667 5667 5666 5664 5663 5663 5662 5661 5660 5659 5657 5656 5655 5658 5657 5652 5649 5647 5649 5650 5651 5650 5647 5646 5645 5643 5640
Wind_Speed
36 34 34 34 35 35 34 35 35 35 33 30 27 26 26 24 23 22 21 22 21 24 26 27 28 28 27 27 27 28 27 28 28 28 32 34 33 34 35 36 35 34 33
38 39 37 37 37 36 37 38 39 39 37 35 32 30 29 27 26 24 25 22 22 23 24 26 28 29 30 30 29 29 30 32 31 29 30 32 33 34 35 35 35 34 31
39 41 42 42 39 36 37 39 41 42 41 40 37 33 32 32 30 27 27 28 26 26 27 28 29 29 30 31 31 32 34 36 35 31 30 32 35 36 37 36 34 33 31
39 41 42 42 40 40 41 42 42 42 43 42 40 37 35 35 34 32 32 32 31 30 30 30 32 33 32 34 36 36 38 37 36 35 33 32 33 33 36 35 34 35 35
46 44 43 43 45 46 44 44 45 45 44 44 43 40 40 39 38 38 37 38 37 35 35 35 35 36 35 35 36 36 37 36 36 35 34 33 33 34 35 35 33 31 34
47 46 43 46 49 49 49 46 46 47 47 47 46 43 43 42 44 43 42 40 38 36 36 36 38 38 39 39 39 38 37 37 36 35 35 34 31 33 35 40 32 31 31
56 51 49 47 49 51 52 52 49 45 45 45 45 45 43 42 42 40 40 37 33 32 32 32 34 36 36 38 41 39 39 38 37 36 34 31 29 33 37 35 34 32 32
55 46 50 51 49 52 53 53 51 50 49 46 45 45 44 41 40 40 39 38 36 35 34 34 34 35 37 35 37 37 39 39 37 36 33 33 34 35 33 35 34 35 32
57 55 50 51 53 56 51 50 50 55 53 51 49 49 48 46 44 43 45 44 40 39 37 36 35 36 36 35 34 34 35 36 35 36 35 36 37 35 35 33 29 28 29
54 60 62 61 64 57 57 58 60 63 47 56 53 54 54 53 52 51 48 47 43 42 41 38 37 37 34 35 33 34 36 33 39 38 33 36 34 30 33 29 29 27 25
65 61 50 53 58 60 59 59 56 53 54 55 54 57 59 57 55 56 54 48 44 43 43 40 35 41 42 38 39 39 43 44 44 37 37 35 30 29 29 24 25 25 24
68 64 58 55 57 56 51 60 63 46 48 53 58 47 56 64 60 58 54 49 50 43 35 32 37 39 38 38 40 41 38 38 32 32 27 27 26 28 27 24 22 20 19
67 59 56 61 59 57 54 49 44 49 50 54 57 48 56 64 50 54 59 54 56 47 43 34 22 24 24 29 30 28 32 34 29 24 27 27 27 27 24 21 21 18 17
57 55 57 58 48 48 37 39 43 48 60 51 63 65 61 73 67 66 59 59 49 47 42 39 38 22 22 25 24 29 32 32 30 28 27 29 31 30 25 23 24 22 20
57 49 47 45 43 42 46 42 44 52 58 35 47 47 55 58 58 44 46 50 36 25 28 30 30 30 27 26 26 31 34 35 33 31 31 33 34 34 32 31 29 27 27
54 49 43 40 39 41 43 42 45 41 31 20 23 29 22 38 55 43 27 21 21 20 21 21 24 23 21 24 25 28 30 33 35 36 37 38 40 41 40 40 41 37 35
59 50 38 34 33 28 22 26 34 29 23 26 23 32 30 22 23 12 25 25 24 25 28 26 29 30 30 31 34 37 41 42 43 43 45 48 52 52 49 47 47 46 47
37 38 37 36 34 30 27 34 39 30 35 47 50 32 23 16 19 18 23 28 29 35 32 36 40 40 42 42 43 45 46 48 53 55 56 56 57 56 54 53 52 52 52
35 36 32 32 33 31 29 30 26 24 25 22 29 23 22 25 25 29 34 39 40 43 44 46 48 48 45 45 49 50 53 54 55 58 60 63 63 62 60 58 57 58 57
33 34 35 35 32 31 29 30 29 24 20 21 24 27 23 26 34 37 37 39 40 43 46 46 46 50 51 56 57 57 57 56 59 64 66 66 65 66 64 65 65 63 61
36 31 31 29 28 26 25 24 25 25 25 23 24 26 30 31 33 34 35 36 39 42 45 47 45 50 46 50 56 60 60 62 64 66 66 64 66 66 64 63 62 63 63
15 10 13 20 23 28 28 29 30 31 31 31 30 32 32 32 37 36 36 38 42 45 45 47 48 49 51 54 56 58 59 59 61 63 63 64 64 61 60 61 63 63 63
16 19 23 26 26 30 32 33 34 34 35 37 39 39 41 41 42 44 45 47 48 50 51 53 55 57 59 61 60 59 59 59 59 60 62 63 62 64 66 68 69 69 71
27 29 31 33 35 35 35 37 39 39 40 42 43 44 45 46 47 48 49 50 52 53 54 55 56 57 58 59 59 61 62 64 66 67 67 69 71 72 71 72 73 73 74
31 33 35 37 40 42 44 44 44 44 45 47 49 49 49 49 51 52 53 54 55 55 56 57 58 59 60 60 62 63 63 65 66 67 68 69 69 68 67 69 71 69 70
35 37 40 42 44 45 46 45 46 48 50 51 51 51 52 55 57 56 55 53 53 54 55 57 59 59 59 61 62 62 63 65 67 68 68 66 66 66 67 68 68 67 67
Wind_Direction
229 229 233 237 238 237 235 236 236 237 240 245 249 248 254 258 263 267 266 264 261 259 258 260 263 267 271 274 276 280 284 288 291 292 294 297 301 301 304 309 315 319 324
234 231 232 235 238 239 241 241 242 242 243 245 249 250 253 256 258 265 270 265 261 263 262 260 262 265 270 274 276 279 284 288 291 294 295 299 301 303 304 307 310 312 317
237 236 235 236 237 238 239 241 243 245 247 247 249 252 254 255 257 258 263 269 269 267 266 265 266 269 271 272 273 278 283 288 290 292 292 294 297 300 301 303 306 307 310
237 239 239 241 243 242 241 241 243 244 245 248 249 251 252 254 258 263 265 268 269 270 271 271 272 271 274 277 279 280 283 286 288 289 290 291 294 295 298 302 304 304 307
239 241 244 244 243 243 242 242 244 246 249 250 251 250 251 253 257 260 263 263 266 268 270 274 276 278 280 279 278 279 282 283 285 286 289 290 293 293 298 301 301 298 295
237 240 242 242 244 244 243 243 242 244 246 249 252 252 252 255 259 262 265 267 270 274 274 273 274 275 276 278 279 280 279 280 281 282 285 288 290 294 297 306 302 302 292
236 235 243 246 244 244 244 244 245 246 248 250 255 257 258 258 261 262 263 267 271 273 273 274 274 275 276 276 277 278 280 278 276 277 279 282 290 292 299 299 302 301 295
228 232 242 244 251 246 244 245 248 248 251 253 255 258 261 262 264 264 264 266 264 263 267 268 268 272 275 277 278 281 278 279 277 276 276 283 289 296 294 293 297 291 291
246 243 241 258 252 252 246 247 246 249 251 254 255 258 261 264 264 263 263 264 264 265 269 272 270 268 271 275 277 276 278 277 278 275 278 284 289 290 293 294 292 293 282
236 237 242 249 257 260 251 251 243 246 250 250 253 256 258 260 261 262 264 265 265 265 266 265 266 265 267 270 275 273 272 276 273 270 271 278 281 294 296 288 291 291 284
246 245 249 252 255 262 261 248 256 247 245 249 253 253 255 255 257 259 260 264 261 262 265 266 270 269 268 270 269 270 266 270 280 259 267 271 275 288 289 286 290 296 284
242 247 251 256 258 261 268 277 245 239 250 249 256 249 261 257 258 260 259 259 261 259 264 274 277 261 260 261 259 257 266 269 265 257 257 263 280 284 285 290 291 285 271
237 240 242 249 255 257 262 267 260 266 261 244 253 249 254 250 248 256 256 252 253 253 252 261 267 268 245 231 235 252 256 261 253 249 258 267 275 272 274 285 289 291 272
237 239 240 245 250 250 262 246 236 253 256 245 244 246 255 252 252 256 257 252 250 250 259 258 245 247 212 217 228 243 248 243 247 252 262 271 274 273 270 277 284 292 287
241 240 245 249 252 251 251 265 255 259 259 268 258 254 249 247 251 252 252 258 229 222 233 222 230 238 237 241 244 245 242 245 250 252 259 265 267 269 267 268 273 280 283
227 228 235 241 248 251 252 264 267 272 276 259 259 247 264 261 253 249 236 192 193 202 214 221 223 226 244 236 237 240 244 251 252 252 254 258 263 263 263 264 266 269 270
224 237 230 237 239 242 241 221 246 254 250 211 223 264 291 295 295 222 186 209 228 239 243 245 252 256 242 246 245 244 244 246 249 250 252 254 257 261 264 265 267 272 275
211 230 230 224 224 228 220 230 248 255 265 263 277 288 277 270 245 232 218 219 233 224 233 240 240 244 245 246 251 251 250 248 248 251 253 254 256 261 264 267 271 274 276
217 222 227 234 236 237 238 244 243 244 245 246 265 265 255 251 244 238 233 232 232 237 239 241 241 242 240 251 251 249 249 250 252 254 255 258 261 264 268 270 272 274 277
231 229 234 237 239 248 246 244 248 240 241 246 240 236 240 251 248 250 248 251 255 254 254 252 251 250 247 249 248 247 250 253 256 259 261 263 265 266 268 270 273 275 275
211 212 221 234 236 238 234 230 232 238 246 247 252 247 240 252 254 257 260 261 258 257 258 253 253 251 253 252 256 255 255 257 259 259 261 261 264 266 268 270 271 270 271
197 199 228 233 233 235 238 237 240 243 244 243 247 244 242 253 254 251 247 252 252 251 248 246 252 254 248 251 253 253 258 260 262 263 255 263 267 267 268 268 267 267 268
227 213 219 233 243 249 248 248 247 246 245 246 247 249 252 252 253 250 249 250 251 251 252 251 252 251 250 252 254 255 257 258 259 261 260 262 263 263 263 264 266 265 265
242 245 245 245 245 245 245 247 248 250 252 252 253 253 253 252 253 253 255 256 256 257 257 258 260 260 258 259 260 261 261 263 263 263 265 265 265 265 268 269 269 270 271
246 248 250 251 251 251 251 256 260 262 261 260 261 262 264 264 263 261 260 260 260 261 263 261 259 260 263 266 267 267 268 269 269 268 267 268 270 274 274 274 274 275 275
266 266 266 266 267 267 268 272 273 274 274 273 271 272 273 273 273 273 271 268 266 267 267 268 268 267 266 266 265 266 265 264 266 267 266 267 266 267 269 270 270 271 273